カタログに戻る

STARLINK-34249

運用中通信VLEO
NORAD 65376·PAYLOAD·🇺🇸 United States

打ち上げ Aug 28, 2025 から Cape Canaveral Space Force Station

Loading…

次のパス (今後24時間)

TLE

最新Source: CelesTrak SupGP

元期: Sep 14, 2026, 20:49 UTC

1 65376C 25190AB  26257.86784722  .00010847  00000+0  32060-3 0  2570
2 65376  53.1597   5.7412 0001220  81.1098 205.4452 15.34373883    18

AllMySatでSTARLINK-34249をリアルタイム追跡

Download on the App Store